TERRA

Last updated on Mon Sep 21 2026 00:02:09 GMT+0000 (Coordinated Universal Time)

1 25994U 99068A 26263.48806405 .00000180 00000+0 45526-4 0 9999 2 25994 97.9361 309.2118 0000999 313.2389 150.9491 14.61162709423528
UTC large
Height (km)
Speed (km/s)
/
Latitude / Longitude
Inclination (degrees)
Orbital Period (minutes)
Azimuth
Elevation
Range (km)
Doppler Factor

Next 0 passes for location: London (51.5072 / 0.1276)

No passes found over London.
TERRA